Hourly Data Report for September 13, 2017

All times are specified in Local Standard Time (LST). Add 1 hour to adjust for Daylight Saving Time where and when it is observed.

SATURNA ISLAND CS
BRITISH COLUMBIA

48°47'02.067" N
123°02'41.082" W
24.40 m
1017101
71473
WEZ

Download Data

Hourly Data (September 2017)
Hourly Data Report for September 13, 2017
Temp Definition
°C
Dew Point Temp Definition
°C
Rel Hum Definition
%
Wind Dir Definition
10's deg

Wind Spd Definition
km/h
Visibility Definition
km
Stn Press Definition
kPa
Hmdx Definition


Wind Chill Definition


Weather Definition


TIME
00:00 14.8 9.1 69 30 3   101.16     LegendNANA
01:00 15.3 8.5 64 25 7   101.14     LegendNANA
02:00 14.9 8.5 66 28 8   101.12     LegendNANA
03:00 14.4 9.2 71 29 8   101.11     LegendNANA
04:00 13.9 9.4 74 30 7   101.14     LegendNANA
05:00 13.8 9.6 76 25 8   101.15     LegendNANA
06:00 13.7 9.6 76 29 9   101.20     LegendNANA
07:00 14.3 9.8 74 28 10   101.23     LegendNANA
08:00 15.0 10.0 72 28 7   101.24     LegendNANA
09:00 15.6 10.4 71 30 10   101.28     LegendNANA
10:00 15.8 11.1 74 28 6   101.26     LegendNANA
11:00 17.0 10.9 68 29 7   101.24     LegendNANA
12:00 17.1 11.4 69 30 9   101.20     LegendNANA
13:00 17.2 11.3 69 30 7   101.17     LegendNANA
14:00 17.4 11.4 68 29 6   101.13     LegendNANA
15:00 17.5 10.9 65 25 4   101.09     LegendNANA
16:00 17.3 11.1 67 26 4   101.04     LegendNANA
17:00 16.1 11.7 75 28 4   100.99     LegendNANA
18:00 15.8 11.2 74 31 3   100.96     LegendNANA
19:00 15.6 10.1 70 24 8   100.97     LegendNANA
20:00 15.1 10.3 73 23 13   100.99     LegendNANA
21:00 13.8 9.9 78 21 8   101.03     LegendNANA
22:00 14.5 10.7 78 24 3   100.99     LegendNANA
23:00 15.4 11.1 76 31 5   100.99     LegendNANA

Notes on Data Quality.

Legend

  • E = Estimated
  • M = Missing
  • NA = Not Available
  • ‡ = Partner data that is not subject to review by the National Climate Archives
Date modified: